Time,TemperatureF,DewpointF,PressureIn,WindDirection,WindDirectionDegrees,WindSpeedMPH,WindSpeedGustMPH,Humidity,HourlyPrecipIn,Conditions,Clouds,dailyrainin,SoftwareType,DateUTC
2013-06-22 00:01:00,68.5,22.0,0.00,SSE,154,0.0,0.0,17,0.00,,---,0.00,VWS V14.01,2013-06-22 04:01:00,
2013-06-22 00:02:00,68.5,22.0,0.00,SSE,154,0.0,0.0,17,0.00,,---,0.00,VWS V14.01,2013-06-22 04:02:00,
2013-06-22 00:03:00,68.4,21.9,0.00,SSE,154,0.0,0.0,17,0.00,,---,0.00,VWS V14.01,2013-06-22 04:03:00,
2013-06-22 00:05:00,68.4,21.9,0.00,SSE,154,0.0,0.0,17,0.00,,---,0.00,VWS V14.01,2013-06-22 04:05:00,
2013-06-22 00:10:00,68.2,21.7,0.00,SSE,154,0.0,0.0,17,0.00,,---,0.00,VWS V14.01,2013-06-22 04:10:00,
2013-06-22 00:12:00,68.2,21.7,0.00,SSE,154,0.0,0.0,17,0.00,,---,0.00,VWS V14.01,2013-06-22 04:12:00,
2013-06-22 00:18:00,68.2,21.7,0.00,SSE,154,0.0,0.0,17,0.00,,---,0.00,VWS V14.01,2013-06-22 04:18:00,
2013-06-22 00:24:00,68.0,21.6,0.00,SSE,154,0.0,0.0,17,0.00,,---,0.00,VWS V14.01,2013-06-22 04:24:00,
2013-06-22 00:29:00,67.8,21.5,0.00,SSE,154,0.0,0.0,17,0.00,,---,0.00,VWS V14.01,2013-06-22 04:29:00,
2013-06-22 00:35:00,67.6,21.3,0.00,SSE,154,0.0,0.0,17,0.00,,---,0.00,VWS V14.01,2013-06-22 04:35:00,
2013-06-22 00:40:00,67.5,21.2,0.00,SSE,154,0.0,0.0,17,0.00,,---,0.00,VWS V14.01,2013-06-22 04:40:00,
2013-06-22 00:46:00,67.1,20.9,0.00,SSE,154,0.0,0.0,17,0.00,,---,0.00,VWS V14.01,2013-06-22 04:46:00,
2013-06-22 00:51:00,66.9,20.7,0.00,SSE,154,0.0,0.0,17,0.00,,---,0.00,VWS V14.01,2013-06-22 04:51:00,
2013-06-22 00:57:00,66.9,20.7,0.00,SE,142,0.0,0.0,17,0.00,,---,0.00,VWS V14.01,2013-06-22 04:57:00,
2013-06-22 01:03:00,67.1,20.9,0.00,SE,138,0.0,0.0,17,0.00,,---,0.00,VWS V14.01,2013-06-22 05:03:00,
2013-06-22 01:08:00,67.1,20.9,0.00,ESE,123,0.0,0.0,17,0.00,,---,0.00,VWS V14.01,2013-06-22 05:08:00,
2013-06-22 01:14:00,66.9,20.7,0.00,ESE,122,0.0,0.0,17,0.00,,---,0.00,VWS V14.01,2013-06-22 05:14:00,
2013-06-22 01:20:00,66.7,20.6,0.00,ESE,123,0.0,0.0,17,0.00,,---,0.00,VWS V14.01,2013-06-22 05:20:00,
2013-06-22 01:25:00,66.6,20.4,0.00,ESE,123,0.0,0.0,17,0.00,,---,0.00,VWS V14.01,2013-06-22 05:25:00,
2013-06-22 01:30:00,66.6,20.4,0.00,East,87,0.0,0.0,17,0.00,,---,0.00,VWS V14.01,2013-06-22 05:30:00,
2013-06-22 01:36:00,66.4,20.3,0.00,East,87,0.0,0.0,17,0.00,,---,0.00,VWS V14.01,2013-06-22 05:36:00,
2013-06-22 01:41:00,66.4,20.3,0.00,East,87,0.0,0.0,17,0.00,,---,0.00,VWS V14.01,2013-06-22 05:41:00,
2013-06-22 01:46:00,66.2,20.1,0.00,East,87,0.0,0.0,17,0.00,,---,0.00,VWS V14.01,2013-06-22 05:46:00,
2013-06-22 01:52:00,66.2,20.1,0.00,East,87,0.0,0.0,17,0.00,,---,0.00,VWS V14.01,2013-06-22 05:52:00,
2013-06-22 01:57:00,66.0,21.3,0.00,East,87,0.0,0.0,18,0.00,,---,0.00,VWS V14.01,2013-06-22 05:57:00,
2013-06-22 02:02:00,65.7,21.0,0.00,East,87,0.0,0.0,18,0.00,,---,0.00,VWS V14.01,2013-06-22 06:02:00,
2013-06-22 02:07:00,65.7,21.0,0.00,East,87,0.0,0.0,18,0.00,,---,0.00,VWS V14.01,2013-06-22 06:07:00,
2013-06-22 02:13:00,65.3,20.7,0.00,East,87,0.0,0.0,18,0.00,,---,0.00,VWS V14.01,2013-06-22 06:13:00,
2013-06-22 02:18:00,65.1,20.6,0.00,East,87,0.0,0.0,18,0.00,,---,0.00,VWS V14.01,2013-06-22 06:18:00,
2013-06-22 02:24:00,64.9,20.4,0.00,East,87,0.0,0.0,18,0.00,,---,0.00,VWS V14.01,2013-06-22 06:24:00,
2013-06-22 02:30:00,64.8,20.3,0.00,East,87,0.0,0.0,18,0.00,,---,0.00,VWS V14.01,2013-06-22 06:30:00,
2013-06-22 02:35:00,64.6,20.1,0.00,East,87,0.0,0.0,18,0.00,,---,0.00,VWS V14.01,2013-06-22 06:35:00,
2013-06-22 02:40:00,64.4,20.0,0.00,East,87,0.0,0.0,18,0.00,,---,0.00,VWS V14.01,2013-06-22 06:40:00,
2013-06-22 02:46:00,64.2,19.9,0.00,East,87,0.0,0.0,18,0.00,,---,0.00,VWS V14.01,2013-06-22 06:46:00,
2013-06-22 02:51:00,64.0,19.7,0.00,East,87,0.0,0.0,18,0.00,,---,0.00,VWS V14.01,2013-06-22 06:51:00,
2013-06-22 02:56:00,63.9,19.6,0.00,East,87,0.0,0.0,18,0.00,,---,0.00,VWS V14.01,2013-06-22 06:56:00,
2013-06-22 03:01:00,63.7,19.4,0.00,East,87,0.0,0.0,18,0.00,,---,0.00,VWS V14.01,2013-06-22 07:01:00,
2013-06-22 03:07:00,63.5,19.3,0.00,East,87,0.0,0.0,18,0.00,,---,0.00,VWS V14.01,2013-06-22 07:07:00,
2013-06-22 03:12:00,63.3,19.1,0.00,East,87,0.0,0.0,18,0.00,,---,0.00,VWS V14.01,2013-06-22 07:12:00,
2013-06-22 03:17:00,63.1,19.0,0.00,East,87,0.0,0.0,18,0.00,,---,0.00,VWS V14.01,2013-06-22 07:17:00,
2013-06-22 03:23:00,63.0,18.8,0.00,East,87,0.0,0.0,18,0.00,,---,0.00,VWS V14.01,2013-06-22 07:23:00,
2013-06-22 03:28:00,62.8,18.7,0.00,East,87,0.0,0.0,18,0.00,,---,0.00,VWS V14.01,2013-06-22 07:28:00,
2013-06-22 03:34:00,62.6,18.5,0.00,East,87,0.0,0.0,18,0.00,,---,0.00,VWS V14.01,2013-06-22 07:34:00,
2013-06-22 03:40:00,62.6,18.5,0.00,East,87,0.0,0.0,18,0.00,,---,0.00,VWS V14.01,2013-06-22 07:40:00,
2013-06-22 03:45:00,62.4,19.6,0.00,East,87,0.0,0.0,19,0.00,,---,0.00,VWS V14.01,2013-06-22 07:45:00,
2013-06-22 03:51:00,62.4,19.6,0.00,East,87,0.0,0.0,19,0.00,,---,0.00,VWS V14.01,2013-06-22 07:51:00,
2013-06-22 03:57:00,62.2,19.5,0.00,East,87,0.0,0.0,19,0.00,,---,0.00,VWS V14.01,2013-06-22 07:57:00,
2013-06-22 04:02:00,62.1,19.3,0.00,East,87,0.0,0.0,19,0.00,,---,0.00,VWS V14.01,2013-06-22 08:02:00,
2013-06-22 04:08:00,61.9,19.2,0.00,East,87,0.0,0.0,19,0.00,,---,0.00,VWS V14.01,2013-06-22 08:08:00,
2013-06-22 04:13:00,61.7,19.0,0.00,East,87,0.0,0.0,19,0.00,,---,0.00,VWS V14.01,2013-06-22 08:13:00,
2013-06-22 04:19:00,61.7,19.0,0.00,East,87,0.0,0.0,19,0.00,,---,0.00,VWS V14.01,2013-06-22 08:19:00,
2013-06-22 04:24:00,61.5,21.2,0.00,East,87,0.0,0.0,21,0.00,,---,0.00,VWS V14.01,2013-06-22 08:24:00,
2013-06-22 04:30:00,61.3,21.1,0.00,East,87,0.0,0.0,21,0.00,,---,0.00,VWS V14.01,2013-06-22 08:30:00,
2013-06-22 04:36:00,61.0,20.8,0.00,East,87,0.0,0.0,21,0.00,,---,0.00,VWS V14.01,2013-06-22 08:36:00,
2013-06-22 04:41:00,61.0,20.8,0.00,East,87,0.0,0.0,21,0.00,,---,0.00,VWS V14.01,2013-06-22 08:41:00,
2013-06-22 04:47:00,60.8,20.6,0.00,East,87,0.0,0.0,21,0.00,,---,0.00,VWS V14.01,2013-06-22 08:47:00,
2013-06-22 04:53:00,60.6,21.6,0.00,East,87,0.0,0.0,22,0.00,,---,0.00,VWS V14.01,2013-06-22 08:53:00,
2013-06-22 04:58:00,60.4,23.5,0.00,East,87,0.0,0.0,24,0.00,,---,0.00,VWS V14.01,2013-06-22 08:58:00,
2013-06-22 05:04:00,60.3,23.4,0.00,East,87,0.0,0.0,24,0.00,,---,0.00,VWS V14.01,2013-06-22 09:04:00,
2013-06-22 05:09:00,60.1,23.2,0.00,East,87,0.0,0.0,24,0.00,,---,0.00,VWS V14.01,2013-06-22 09:09:00,
2013-06-22 05:15:00,60.1,23.2,0.00,East,87,0.0,0.0,24,0.00,,---,0.00,VWS V14.01,2013-06-22 09:15:00,
2013-06-22 05:20:00,60.1,23.2,0.00,East,87,0.0,0.0,24,0.00,,---,0.00,VWS V14.01,2013-06-22 09:20:00,
2013-06-22 05:26:00,59.9,24.0,0.00,East,87,0.0,0.0,25,0.00,,---,0.00,VWS V14.01,2013-06-22 09:26:00,
2013-06-22 05:32:00,59.9,24.0,0.00,East,87,0.0,0.0,25,0.00,,---,0.00,VWS V14.01,2013-06-22 09:32:00,
2013-06-22 05:37:00,59.9,24.0,0.00,East,87,0.0,0.0,25,0.00,,---,0.00,VWS V14.01,2013-06-22 09:37:00,
2013-06-22 05:43:00,59.9,24.0,0.00,East,87,0.0,0.0,25,0.00,,---,0.00,VWS V14.01,2013-06-22 09:43:00,
2013-06-22 05:48:00,60.1,24.2,0.00,East,88,0.0,0.0,25,0.00,,---,0.00,VWS V14.01,2013-06-22 09:48:00,
2013-06-22 05:54:00,60.3,24.3,0.00,East,88,0.0,0.0,25,0.00,,---,0.00,VWS V14.01,2013-06-22 09:54:00,
2013-06-22 06:00:00,60.3,24.3,0.00,East,88,0.0,0.0,25,0.00,,---,0.00,VWS V14.01,2013-06-22 10:00:00,
2013-06-22 06:05:00,60.4,24.5,0.00,East,88,0.0,0.0,25,0.00,,---,0.00,VWS V14.01,2013-06-22 10:05:00,
2013-06-22 06:11:00,60.8,24.8,0.00,East,88,0.0,0.0,25,0.00,,---,0.00,VWS V14.01,2013-06-22 10:11:00,
2013-06-22 06:16:00,61.0,24.9,0.00,East,88,0.0,0.0,25,0.00,,---,0.00,VWS V14.01,2013-06-22 10:16:00,
2013-06-22 06:22:00,61.2,25.1,0.00,East,88,0.0,0.0,25,0.00,,---,0.00,VWS V14.01,2013-06-22 10:22:00,
2013-06-22 06:28:00,61.5,25.4,0.00,East,88,0.0,0.0,25,0.00,,---,0.00,VWS V14.01,2013-06-22 10:28:00,
2013-06-22 06:33:00,61.7,25.5,0.00,East,88,0.0,0.0,25,0.00,,---,0.00,VWS V14.01,2013-06-22 10:33:00,
2013-06-22 06:39:00,62.2,26.0,0.00,East,90,0.0,0.0,25,0.00,,---,0.00,VWS V14.01,2013-06-22 10:39:00,
2013-06-22 06:44:00,62.6,26.3,0.00,East,90,0.0,0.0,25,0.00,,---,0.00,VWS V14.01,2013-06-22 10:44:00,
2013-06-22 06:50:00,63.1,26.8,0.00,East,90,0.0,0.0,25,0.00,,---,0.00,VWS V14.01,2013-06-22 10:50:00,
2013-06-22 06:55:00,63.7,27.2,0.00,East,90,0.0,0.0,25,0.00,,---,0.00,VWS V14.01,2013-06-22 10:55:00,
2013-06-22 07:01:00,64.2,26.7,0.00,East,101,0.0,0.0,24,0.00,,---,0.00,VWS V14.01,2013-06-22 11:01:00,
2013-06-22 07:07:00,64.8,27.2,0.00,East,101,0.0,0.0,24,0.00,,---,0.00,VWS V14.01,2013-06-22 11:07:00,
2013-06-22 07:12:00,65.5,26.7,0.00,East,101,0.0,0.0,23,0.00,,---,0.00,VWS V14.01,2013-06-22 11:12:00,
2013-06-22 07:18:00,65.8,27.0,0.00,East,101,0.0,0.0,23,0.00,,---,0.00,VWS V14.01,2013-06-22 11:18:00,
2013-06-22 07:24:00,66.6,26.6,0.00,East,98,0.0,0.0,22,0.00,,---,0.00,VWS V14.01,2013-06-22 11:24:00,
2013-06-22 07:29:00,67.1,24.7,0.00,East,98,0.0,0.0,20,0.00,,---,0.00,VWS V14.01,2013-06-22 11:29:00,
2013-06-22 07:34:00,67.3,24.9,0.00,East,98,0.0,0.0,20,0.00,,---,0.00,VWS V14.01,2013-06-22 11:34:00,
2013-06-22 07:40:00,67.8,25.3,0.00,East,98,0.0,0.0,20,0.00,,---,0.00,VWS V14.01,2013-06-22 11:40:00,
2013-06-22 07:45:00,68.2,25.6,0.00,East,98,0.0,0.0,20,0.00,,---,0.00,VWS V14.01,2013-06-22 11:45:00,
2013-06-22 07:50:00,68.9,26.2,0.00,East,98,0.0,0.0,20,0.00,,---,0.00,VWS V14.01,2013-06-22 11:50:00,
2013-06-22 07:55:00,69.4,26.7,0.00,East,98,0.0,0.0,20,0.00,,---,0.00,VWS V14.01,2013-06-22 11:55:00,
2013-06-22 08:00:00,70.3,23.5,0.00,East,87,0.0,0.0,17,0.00,,---,0.00,VWS V14.01,2013-06-22 12:00:00,
2013-06-22 08:06:00,71.6,23.1,0.00,SSE,148,0.0,0.0,16,0.00,,---,0.00,VWS V14.01,2013-06-22 12:06:00,
2013-06-22 08:11:00,74.8,25.7,0.00,NE,37,0.0,0.0,16,0.00,,---,0.00,VWS V14.01,2013-06-22 12:11:00,
2013-06-22 08:17:00,74.7,25.5,0.00,NE,37,0.0,0.0,16,0.00,,---,0.00,VWS V14.01,2013-06-22 12:17:00,
2013-06-22 08:22:00,73.8,24.8,0.00,WNW,284,0.0,0.0,16,0.00,,---,0.00,VWS V14.01,2013-06-22 12:22:00,
2013-06-22 08:28:00,74.1,25.1,0.00,NW,306,0.0,0.0,16,0.00,,---,0.00,VWS V14.01,2013-06-22 12:28:00,
2013-06-22 08:34:00,74.5,25.4,0.00,SSE,154,0.0,0.0,16,0.00,,---,0.00,VWS V14.01,2013-06-22 12:34:00,
2013-06-22 08:39:00,74.8,25.7,0.00,East,87,0.0,0.0,16,0.00,,---,0.00,VWS V14.01,2013-06-22 12:39:00,
2013-06-22 08:45:00,74.8,25.7,0.00,East,90,0.0,0.0,16,0.00,,---,0.00,VWS V14.01,2013-06-22 12:45:00,
2013-06-22 08:50:00,76.6,25.6,0.00,NW,314,0.0,0.0,15,0.00,,---,0.00,VWS V14.01,2013-06-22 12:50:00,
2013-06-22 08:56:00,77.7,26.4,0.00,NE,56,0.0,0.0,15,0.00,,---,0.00,VWS V14.01,2013-06-22 12:56:00,
2013-06-22 09:02:00,77.0,25.9,0.00,NNW,338,0.0,0.0,15,0.00,,---,0.00,VWS V14.01,2013-06-22 13:02:00,
2013-06-22 09:07:00,76.3,25.3,0.00,East,98,0.0,0.0,15,0.00,,---,0.00,VWS V14.01,2013-06-22 13:07:00,
2013-06-22 09:13:00,75.9,25.0,0.00,South,171,0.0,0.0,15,0.00,,---,0.00,VWS V14.01,2013-06-22 13:13:00,
2013-06-22 09:18:00,75.9,25.0,0.00,NW,311,0.0,0.0,15,0.00,,---,0.00,VWS V14.01,2013-06-22 13:18:00,
2013-06-22 09:23:00,76.1,25.1,0.00,ENE,59,0.0,0.0,15,0.00,,---,0.00,VWS V14.01,2013-06-22 13:23:00,
2013-06-22 09:28:00,76.3,25.3,0.00,SE,142,0.0,0.0,15,0.00,,---,0.00,VWS V14.01,2013-06-22 13:28:00,
2013-06-22 09:34:00,76.3,25.3,0.00,ESE,115,0.0,0.0,15,0.00,,---,0.00,VWS V14.01,2013-06-22 13:34:00,
2013-06-22 09:39:00,76.5,25.4,0.00,SSW,203,0.0,0.0,15,0.00,,---,0.00,VWS V14.01,2013-06-22 13:39:00,
2013-06-22 09:44:00,76.8,25.7,0.00,South,190,0.0,0.0,15,0.00,,---,0.00,VWS V14.01,2013-06-22 13:44:00,
2013-06-22 09:49:00,77.4,26.1,0.00,South,185,0.0,0.0,15,0.00,,---,0.00,VWS V14.01,2013-06-22 13:49:00,
2013-06-22 09:55:00,78.1,26.7,0.00,West,276,0.0,0.0,15,0.00,,---,0.00,VWS V14.01,2013-06-22 13:55:00,
2013-06-22 10:00:00,79.2,27.6,0.00,ESE,117,0.0,0.0,15,0.00,,---,0.00,VWS V14.01,2013-06-22 14:00:00,
2013-06-22 10:07:00,79.3,27.7,0.00,ESE,116,0.0,0.0,15,0.00,,---,0.00,VWS V14.01,2013-06-22 14:07:00,
2013-06-22 10:13:00,79.2,27.6,0.00,SSE,166,0.0,0.0,15,0.00,,---,0.00,VWS V14.01,2013-06-22 14:13:00,
2013-06-22 10:19:00,79.3,27.7,0.00,East,86,0.0,0.0,15,0.00,,---,0.00,VWS V14.01,2013-06-22 14:19:00,
2013-06-22 10:24:00,79.7,28.0,0.00,WNW,292,0.0,0.0,15,0.00,,---,0.00,VWS V14.01,2013-06-22 14:24:00,
2013-06-22 10:30:00,79.9,28.1,0.00,South,187,0.0,0.0,15,0.00,,---,0.00,VWS V14.01,2013-06-22 14:30:00,
2013-06-22 10:35:00,80.1,28.3,0.00,SE,141,0.0,0.0,15,0.00,,---,0.00,VWS V14.01,2013-06-22 14:35:00,
2013-06-22 10:41:00,80.2,28.4,0.00,East,83,0.0,3.6,15,0.00,,---,0.00,VWS V14.01,2013-06-22 14:41:00,
2013-06-22 10:47:00,80.8,27.2,0.00,North,357,4.0,4.0,14,0.00,,---,0.00,VWS V14.01,2013-06-22 14:47:00,
2013-06-22 10:52:00,81.0,27.3,0.00,ENE,77,0.0,0.0,14,0.00,,---,0.00,VWS V14.01,2013-06-22 14:52:00,
2013-06-22 10:57:00,81.1,27.5,0.00,NW,314,0.0,0.0,14,0.00,,---,0.00,VWS V14.01,2013-06-22 14:57:00,
2013-06-22 11:02:00,81.1,27.5,0.00,NNE,24,0.0,0.0,14,0.00,,---,0.00,VWS V14.01,2013-06-22 15:02:00,
2013-06-22 11:08:00,81.7,27.9,0.00,NW,307,0.0,0.0,14,0.00,,---,0.00,VWS V14.01,2013-06-22 15:08:00,
2013-06-22 11:13:00,82.0,28.2,0.00,NNW,340,0.0,0.0,14,0.00,,---,0.00,VWS V14.01,2013-06-22 15:13:00,
2013-06-22 11:19:00,82.4,28.5,0.00,SW,230,0.0,0.0,14,0.00,,---,0.00,VWS V14.01,2013-06-22 15:19:00,
2013-06-22 11:24:00,82.8,28.8,0.00,East,79,0.0,0.0,14,0.00,,---,0.00,VWS V14.01,2013-06-22 15:24:00,
2013-06-22 11:30:00,83.1,29.0,0.00,North,0,0.0,0.0,14,0.00,,---,0.00,VWS V14.01,2013-06-22 15:30:00,
2013-06-22 11:36:00,83.3,29.2,0.00,NNE,22,2.2,3.1,14,0.00,,---,0.00,VWS V14.01,2013-06-22 15:36:00,
2013-06-22 11:41:00,82.6,28.6,0.00,NNE,12,0.0,0.0,14,0.00,,---,0.00,VWS V14.01,2013-06-22 15:41:00,
2013-06-22 11:47:00,83.1,29.0,0.00,SSE,165,0.0,0.0,14,0.00,,---,0.00,VWS V14.01,2013-06-22 15:47:00,
2013-06-22 11:52:00,83.3,29.2,0.00,West,275,0.0,0.0,14,0.00,,---,0.00,VWS V14.01,2013-06-22 15:52:00,
2013-06-22 11:58:00,83.1,29.0,0.00,NNE,28,3.6,3.6,14,0.00,,---,0.00,VWS V14.01,2013-06-22 15:58:00,
2013-06-22 12:04:00,83.5,29.3,0.00,West,266,0.0,2.7,14,0.00,,---,0.00,VWS V14.01,2013-06-22 16:04:00,
2013-06-22 12:09:00,83.5,29.3,0.00,SW,217,0.0,3.1,14,0.00,,---,0.00,VWS V14.01,2013-06-22 16:09:00,
2013-06-22 12:14:00,83.8,29.6,0.00,SSE,156,0.0,0.0,14,0.00,,---,0.00,VWS V14.01,2013-06-22 16:14:00,
2013-06-22 12:20:00,84.2,28.1,0.00,SSE,163,0.0,0.0,13,0.00,,---,0.00,VWS V14.01,2013-06-22 16:20:00,
2013-06-22 12:25:00,84.0,29.8,0.00,WNW,292,0.0,2.7,14,0.00,,---,0.00,VWS V14.01,2013-06-22 16:25:00,
2013-06-22 12:31:00,84.2,28.1,0.00,West,262,0.0,0.0,13,0.00,,---,0.00,VWS V14.01,2013-06-22 16:31:00,
2013-06-22 12:36:00,84.2,28.1,0.00,NNE,25,0.0,0.0,13,0.00,,---,0.00,VWS V14.01,2013-06-22 16:36:00,
2013-06-22 12:41:00,84.0,29.8,0.00,SSW,194,0.0,2.7,14,0.00,,---,0.00,VWS V14.01,2013-06-22 16:41:00,
2013-06-22 12:46:00,84.4,28.2,0.00,ENE,58,0.0,0.0,13,0.00,,---,0.00,VWS V14.01,2013-06-22 16:46:00,
2013-06-22 12:51:00,84.9,28.6,0.00,North,350,0.0,0.0,13,0.00,,---,0.00,VWS V14.01,2013-06-22 16:51:00,
2013-06-22 12:57:00,85.3,28.9,0.00,North,353,0.0,0.0,13,0.00,,---,0.00,VWS V14.01,2013-06-22 16:57:00,
2013-06-22 13:02:00,85.6,29.2,0.00,South,183,0.0,2.2,13,0.00,,---,0.00,VWS V14.01,2013-06-22 17:02:00,
2013-06-22 13:07:00,85.6,29.2,0.00,East,92,0.0,0.0,13,0.00,,---,0.00,VWS V14.01,2013-06-22 17:07:00,
2013-06-22 13:12:00,85.6,29.2,0.00,East,100,0.0,2.7,13,0.00,,---,0.00,VWS V14.01,2013-06-22 17:12:00,
2013-06-22 13:18:00,85.6,29.2,0.00,NW,305,0.0,0.0,13,0.00,,---,0.00,VWS V14.01,2013-06-22 17:18:00,
2013-06-22 13:23:00,85.6,29.2,0.00,WNW,294,0.0,0.0,13,0.00,,---,0.00,VWS V14.01,2013-06-22 17:23:00,
2013-06-22 13:29:00,86.0,29.5,0.00,NNW,333,0.0,0.0,13,0.00,,---,0.00,VWS V14.01,2013-06-22 17:29:00,
2013-06-22 13:35:00,86.2,29.6,0.00,ESE,110,0.0,0.0,13,0.00,,---,0.00,VWS V14.01,2013-06-22 17:35:00,
2013-06-22 13:40:00,86.4,29.8,0.00,East,97,2.2,3.6,13,0.00,,---,0.00,VWS V14.01,2013-06-22 17:40:00,
2013-06-22 13:46:00,86.4,29.8,0.00,East,85,0.0,3.1,13,0.00,,---,0.00,VWS V14.01,2013-06-22 17:46:00,
2013-06-22 13:51:00,86.7,30.0,0.00,West,279,0.0,2.7,13,0.00,,---,0.00,VWS V14.01,2013-06-22 17:51:00,
2013-06-22 13:57:00,87.1,30.3,0.00,NW,310,3.6,3.6,13,0.00,,---,0.00,VWS V14.01,2013-06-22 17:57:00,
2013-06-22 14:03:00,86.9,30.2,0.00,ENE,76,0.0,0.0,13,0.00,,---,0.00,VWS V14.01,2013-06-22 18:03:00,
2013-06-22 14:08:00,87.1,30.3,0.00,ESE,106,0.0,0.0,13,0.00,,---,0.00,VWS V14.01,2013-06-22 18:08:00,
2013-06-22 14:14:00,87.1,30.3,0.00,West,280,2.7,2.7,13,0.00,,---,0.00,VWS V14.01,2013-06-22 18:14:00,
2013-06-22 14:19:00,87.1,30.3,0.00,WNW,301,0.0,0.0,13,0.00,,---,0.00,VWS V14.01,2013-06-22 18:19:00,
2013-06-22 14:25:00,87.4,30.6,0.00,ESE,108,0.0,2.7,13,0.00,,---,0.00,VWS V14.01,2013-06-22 18:25:00,
2013-06-22 14:30:00,87.1,30.3,0.00,West,264,3.6,5.8,13,0.00,,---,0.00,VWS V14.01,2013-06-22 18:30:00,
2013-06-22 14:36:00,86.9,30.2,0.00,NW,307,4.0,4.9,13,0.00,,---,0.00,VWS V14.01,2013-06-22 18:36:00,
2013-06-22 14:42:00,87.1,30.3,0.00,WNW,293,2.7,3.6,13,0.00,,---,0.00,VWS V14.01,2013-06-22 18:42:00,
2013-06-22 14:47:00,87.3,30.5,0.00,NW,314,0.0,2.7,13,0.00,,---,0.00,VWS V14.01,2013-06-22 18:47:00,
2013-06-22 14:52:00,87.3,30.5,0.00,WNW,286,0.0,0.0,13,0.00,,---,0.00,VWS V14.01,2013-06-22 18:52:00,
2013-06-22 14:57:00,87.4,30.6,0.00,NNW,341,0.0,0.0,13,0.00,,---,0.00,VWS V14.01,2013-06-22 18:57:00,
2013-06-22 15:03:00,87.3,30.5,0.00,NNW,327,0.0,0.0,13,0.00,,---,0.00,VWS V14.01,2013-06-22 19:03:00,
2013-06-22 15:08:00,87.6,30.8,0.00,NNE,14,0.0,0.0,13,0.00,,---,0.00,VWS V14.01,2013-06-22 19:08:00,
2013-06-22 15:13:00,87.6,30.8,0.00,South,178,0.0,0.0,13,0.00,,---,0.00,VWS V14.01,2013-06-22 19:13:00,
2013-06-22 15:18:00,87.6,30.8,0.00,East,101,0.0,2.7,13,0.00,,---,0.00,VWS V14.01,2013-06-22 19:18:00,
2013-06-22 15:24:00,87.6,30.8,0.00,South,175,0.0,0.0,13,0.00,,---,0.00,VWS V14.01,2013-06-22 19:24:00,
2013-06-22 15:29:00,87.1,30.3,0.00,SSW,200,0.0,0.0,13,0.00,,---,0.00,VWS V14.01,2013-06-22 19:29:00,
2013-06-22 15:35:00,86.9,30.2,0.00,North,357,0.0,0.0,13,0.00,,---,0.00,VWS V14.01,2013-06-22 19:35:00,
2013-06-22 15:41:00,86.9,30.2,0.00,South,176,0.0,2.7,13,0.00,,---,0.00,VWS V14.01,2013-06-22 19:41:00,
2013-06-22 15:46:00,86.7,30.0,0.00,NE,50,0.0,0.0,13,0.00,,---,0.00,VWS V14.01,2013-06-22 19:46:00,
2013-06-22 15:52:00,86.9,30.2,0.00,East,82,0.0,0.0,13,0.00,,---,0.00,VWS V14.01,2013-06-22 19:52:00,
2013-06-22 15:57:00,87.1,30.3,0.00,SW,232,0.0,2.2,13,0.00,,---,0.00,VWS V14.01,2013-06-22 19:57:00,
2013-06-22 16:03:00,87.1,30.3,0.00,South,183,0.0,2.7,13,0.00,,---,0.00,VWS V14.01,2013-06-22 20:03:00,
2013-06-22 16:08:00,86.5,29.9,0.00,NNE,19,0.0,0.0,13,0.00,,---,0.00,VWS V14.01,2013-06-22 20:08:00,
2013-06-22 16:14:00,86.7,30.0,0.00,SW,223,0.0,0.0,13,0.00,,---,0.00,VWS V14.01,2013-06-22 20:14:00,
2013-06-22 16:20:00,87.1,30.3,0.00,SE,143,0.0,2.7,13,0.00,,---,0.00,VWS V14.01,2013-06-22 20:20:00,
2013-06-22 16:25:00,87.1,30.3,0.00,South,180,0.0,0.0,13,0.00,,---,0.00,VWS V14.01,2013-06-22 20:25:00,
2013-06-22 16:31:00,86.5,29.9,0.00,ESE,106,2.2,2.7,13,0.00,,---,0.00,VWS V14.01,2013-06-22 20:31:00,
2013-06-22 16:37:00,86.4,29.8,0.00,ESE,118,3.6,3.6,13,0.00,,---,0.00,VWS V14.01,2013-06-22 20:37:00,
2013-06-22 16:42:00,86.0,29.5,0.00,SSW,208,0.0,2.7,13,0.00,,---,0.00,VWS V14.01,2013-06-22 20:42:00,
2013-06-22 16:48:00,85.6,29.2,0.00,ESE,119,0.0,0.0,13,0.00,,---,0.00,VWS V14.01,2013-06-22 20:48:00,
2013-06-22 16:53:00,85.1,28.8,0.00,South,177,0.0,0.0,13,0.00,,---,0.00,VWS V14.01,2013-06-22 20:53:00,
2013-06-22 16:59:00,85.1,28.8,0.00,NNE,30,0.0,2.7,13,0.00,,---,0.00,VWS V14.01,2013-06-22 20:59:00,
2013-06-22 17:05:00,84.9,28.6,0.00,SE,126,3.1,3.1,13,0.00,,---,0.00,VWS V14.01,2013-06-22 21:05:00,
2013-06-22 17:10:00,84.6,28.4,0.00,SSW,207,0.0,0.0,13,0.00,,---,0.00,VWS V14.01,2013-06-22 21:10:00,
2013-06-22 17:16:00,84.2,28.1,0.00,SE,125,0.0,0.0,13,0.00,,---,0.00,VWS V14.01,2013-06-22 21:16:00,
2013-06-22 17:21:00,84.0,29.8,0.00,NNE,33,2.7,3.6,14,0.00,,---,0.00,VWS V14.01,2013-06-22 21:21:00,
2013-06-22 17:27:00,84.0,29.8,0.00,ENE,72,0.0,0.0,14,0.00,,---,0.00,VWS V14.01,2013-06-22 21:27:00,
2013-06-22 17:32:00,83.8,29.6,0.00,East,85,0.0,0.0,14,0.00,,---,0.00,VWS V14.01,2013-06-22 21:32:00,
2013-06-22 17:38:00,83.7,29.5,0.00,SE,124,0.0,0.0,14,0.00,,---,0.00,VWS V14.01,2013-06-22 21:38:00,
2013-06-22 17:44:00,83.3,29.2,0.00,SSE,166,0.0,0.0,14,0.00,,---,0.00,VWS V14.01,2013-06-22 21:44:00,
2013-06-22 17:49:00,83.1,29.0,0.00,NNE,15,0.0,0.0,14,0.00,,---,0.00,VWS V14.01,2013-06-22 21:49:00,
2013-06-22 17:54:00,83.1,29.0,0.00,ESE,114,2.2,2.7,14,0.00,,---,0.00,VWS V14.01,2013-06-22 21:54:00,
2013-06-22 17:59:00,82.8,28.8,0.00,East,99,0.0,0.0,14,0.00,,---,0.00,VWS V14.01,2013-06-22 21:59:00,
2013-06-22 18:05:00,82.4,28.5,0.00,East,99,0.0,0.0,14,0.00,,---,0.00,VWS V14.01,2013-06-22 22:05:00,
2013-06-22 18:10:00,82.0,28.2,0.00,East,99,0.0,0.0,14,0.00,,---,0.00,VWS V14.01,2013-06-22 22:10:00,
2013-06-22 18:16:00,82.0,28.2,0.00,East,97,0.0,0.0,14,0.00,,---,0.00,VWS V14.01,2013-06-22 22:16:00,
2013-06-22 18:21:00,81.7,27.9,0.00,ESE,118,0.0,0.0,14,0.00,,---,0.00,VWS V14.01,2013-06-22 22:21:00,
2013-06-22 18:26:00,81.3,27.6,0.00,SE,142,0.0,0.0,14,0.00,,---,0.00,VWS V14.01,2013-06-22 22:26:00,
2013-06-22 18:31:00,81.1,27.5,0.00,NE,37,0.0,0.0,14,0.00,,---,0.00,VWS V14.01,2013-06-22 22:31:00,
2013-06-22 18:38:00,80.6,27.0,0.00,East,90,0.0,0.0,14,0.00,,---,0.00,VWS V14.01,2013-06-22 22:38:00,
2013-06-22 18:44:00,80.4,28.6,0.00,ESE,104,0.0,0.0,15,0.00,,---,0.00,VWS V14.01,2013-06-22 22:44:00,
2013-06-22 18:49:00,80.4,28.6,0.00,SSE,163,4.0,4.0,15,0.00,,---,0.00,VWS V14.01,2013-06-22 22:49:00,
2013-06-22 18:55:00,80.2,28.4,0.00,NE,39,0.0,0.0,15,0.00,,---,0.00,VWS V14.01,2013-06-22 22:55:00,
2013-06-22 19:01:00,79.9,28.1,0.00,SSE,156,0.0,0.0,15,0.00,,---,0.00,VWS V14.01,2013-06-22 23:01:00,
2013-06-22 19:06:00,80.2,28.4,0.00,NNE,15,0.0,0.0,15,0.00,,---,0.00,VWS V14.01,2013-06-22 23:06:00,
2013-06-22 19:12:00,80.6,27.0,0.00,North,0,0.0,0.0,14,0.00,,---,0.00,VWS V14.01,2013-06-22 23:12:00,
2013-06-22 19:17:00,80.2,28.4,0.00,East,93,0.0,0.0,15,0.00,,---,0.00,VWS V14.01,2013-06-22 23:17:00,
2013-06-22 19:22:00,79.9,28.1,0.00,North,357,0.0,0.0,15,0.00,,---,0.00,VWS V14.01,2013-06-22 23:22:00,
2013-06-22 19:29:00,79.9,28.1,0.00,SE,133,0.0,0.0,15,0.00,,---,0.00,VWS V14.01,2013-06-22 23:29:00,
2013-06-22 19:34:00,79.3,27.7,0.00,SE,133,0.0,0.0,15,0.00,,---,0.00,VWS V14.01,2013-06-22 23:34:00,
2013-06-22 19:40:00,78.4,27.0,0.00,SE,128,0.0,0.0,15,0.00,,---,0.00,VWS V14.01,2013-06-22 23:40:00,
2013-06-22 19:45:00,78.1,26.7,0.00,SE,128,0.0,0.0,15,0.00,,---,0.00,VWS V14.01,2013-06-22 23:45:00,
2013-06-22 19:51:00,78.1,26.7,0.00,ENE,76,0.0,0.0,15,0.00,,---,0.00,VWS V14.01,2013-06-22 23:51:00,
2013-06-22 19:56:00,77.4,26.1,0.00,ENE,76,0.0,0.0,15,0.00,,---,0.00,VWS V14.01,2013-06-22 23:56:00,
2013-06-22 20:02:00,76.3,25.3,0.00,ENE,76,0.0,0.0,15,0.00,,---,0.00,VWS V14.01,2013-06-23 00:02:00,
2013-06-22 20:08:00,75.4,24.6,0.00,ESE,118,0.0,0.0,15,0.00,,---,0.00,VWS V14.01,2013-06-23 00:08:00,
2013-06-22 20:13:00,74.8,25.7,0.00,ESE,111,0.0,0.0,16,0.00,,---,0.00,VWS V14.01,2013-06-23 00:13:00,
2013-06-22 20:19:00,74.5,25.4,0.00,ESE,111,0.0,0.0,16,0.00,,---,0.00,VWS V14.01,2013-06-23 00:19:00,
2013-06-22 20:25:00,73.9,25.0,0.00,SE,128,0.0,0.0,16,0.00,,---,0.00,VWS V14.01,2013-06-23 00:25:00,
2013-06-22 20:30:00,73.6,24.7,0.00,SE,128,0.0,0.0,16,0.00,,---,0.00,VWS V14.01,2013-06-23 00:30:00,
2013-06-22 20:36:00,73.4,24.5,0.00,SE,128,0.0,0.0,16,0.00,,---,0.00,VWS V14.01,2013-06-23 00:36:00,
2013-06-22 20:41:00,73.0,24.2,0.00,SE,135,0.0,0.0,16,0.00,,---,0.00,VWS V14.01,2013-06-23 00:41:00,
2013-06-22 20:47:00,72.9,24.1,0.00,SE,135,0.0,0.0,16,0.00,,---,0.00,VWS V14.01,2013-06-23 00:47:00,
2013-06-22 20:52:00,72.7,23.9,0.00,SE,135,0.0,0.0,16,0.00,,---,0.00,VWS V14.01,2013-06-23 00:52:00,
2013-06-22 20:57:00,72.5,23.8,0.00,SE,135,0.0,0.0,16,0.00,,---,0.00,VWS V14.01,2013-06-23 00:57:00,
2013-06-22 21:04:00,72.1,23.5,0.00,SE,135,0.0,0.0,16,0.00,,---,0.00,VWS V14.01,2013-06-23 01:04:00,
2013-06-22 21:09:00,71.8,23.2,0.00,SE,135,0.0,0.0,16,0.00,,---,0.00,VWS V14.01,2013-06-23 01:09:00,
2013-06-22 21:15:00,71.6,23.1,0.00,SE,135,0.0,0.0,16,0.00,,---,0.00,VWS V14.01,2013-06-23 01:15:00,
2013-06-22 21:20:00,71.4,24.4,0.00,SE,135,0.0,0.0,17,0.00,,---,0.00,VWS V14.01,2013-06-23 01:20:00,
2013-06-22 21:26:00,71.2,24.2,0.00,SE,135,0.0,0.0,17,0.00,,---,0.00,VWS V14.01,2013-06-23 01:26:00,
2013-06-22 21:31:00,71.2,24.2,0.00,SE,135,0.0,0.0,17,0.00,,---,0.00,VWS V14.01,2013-06-23 01:31:00,
2013-06-22 21:36:00,71.1,24.1,0.00,SE,135,0.0,0.0,17,0.00,,---,0.00,VWS V14.01,2013-06-23 01:36:00,
2013-06-22 21:43:00,70.9,23.9,0.00,SE,135,0.0,0.0,17,0.00,,---,0.00,VWS V14.01,2013-06-23 01:43:00,
2013-06-22 21:48:00,70.5,23.6,0.00,SE,135,0.0,0.0,17,0.00,,---,0.00,VWS V14.01,2013-06-23 01:48:00,
2013-06-22 21:54:00,70.5,23.6,0.00,SE,135,0.0,0.0,17,0.00,,---,0.00,VWS V14.01,2013-06-23 01:54:00,
2013-06-22 22:00:00,70.3,23.5,0.00,SE,135,0.0,0.0,17,0.00,,---,0.00,VWS V14.01,2013-06-23 02:00:00,
2013-06-22 22:05:00,70.3,23.5,0.00,SE,135,0.0,0.0,17,0.00,,---,0.00,VWS V14.01,2013-06-23 02:05:00,
2013-06-22 22:11:00,70.3,23.5,0.00,SE,135,0.0,0.0,17,0.00,,---,0.00,VWS V14.01,2013-06-23 02:11:00,
2013-06-22 22:16:00,70.2,23.4,0.00,SE,135,0.0,0.0,17,0.00,,---,0.00,VWS V14.01,2013-06-23 02:16:00,
2013-06-22 22:22:00,70.2,23.4,0.00,SE,135,0.0,0.0,17,0.00,,---,0.00,VWS V14.01,2013-06-23 02:22:00,
2013-06-22 22:27:00,70.0,23.2,0.00,SE,135,0.0,0.0,17,0.00,,---,0.00,VWS V14.01,2013-06-23 02:27:00,
2013-06-22 22:32:00,69.8,23.1,0.00,SE,135,0.0,0.0,17,0.00,,---,0.00,VWS V14.01,2013-06-23 02:32:00,
2013-06-22 22:39:00,69.6,22.9,0.00,SE,135,0.0,0.0,17,0.00,,---,0.00,VWS V14.01,2013-06-23 02:39:00,
2013-06-22 22:44:00,69.8,23.1,0.00,SE,135,0.0,0.0,17,0.00,,---,0.00,VWS V14.01,2013-06-23 02:44:00,
2013-06-22 22:50:00,69.8,23.1,0.00,SE,135,0.0,0.0,17,0.00,,---,0.00,VWS V14.01,2013-06-23 02:50:00,
2013-06-22 22:55:00,70.0,23.2,0.00,SE,135,0.0,0.0,17,0.00,,---,0.00,VWS V14.01,2013-06-23 02:55:00,
2013-06-22 23:00:00,70.0,23.2,0.00,SE,135,0.0,0.0,17,0.00,,---,0.00,VWS V14.01,2013-06-23 03:00:00,
2013-06-22 23:06:00,70.0,23.2,0.00,SE,135,0.0,0.0,17,0.00,,---,0.00,VWS V14.01,2013-06-23 03:06:00,
2013-06-22 23:11:00,69.8,23.1,0.00,SE,135,0.0,0.0,17,0.00,,---,0.00,VWS V14.01,2013-06-23 03:11:00,
2013-06-22 23:17:00,69.8,23.1,0.00,SE,135,0.0,0.0,17,0.00,,---,0.00,VWS V14.01,2013-06-23 03:17:00,
2013-06-22 23:22:00,69.8,23.1,0.00,SE,135,0.0,0.0,17,0.00,,---,0.00,VWS V14.01,2013-06-23 03:22:00,
2013-06-22 23:28:00,69.6,22.9,0.00,SE,135,0.0,0.0,17,0.00,,---,0.00,VWS V14.01,2013-06-23 03:28:00,
2013-06-22 23:34:00,69.6,22.9,0.00,SE,135,0.0,0.0,17,0.00,,---,0.00,VWS V14.01,2013-06-23 03:34:00,
2013-06-22 23:39:00,69.4,22.8,0.00,SE,135,0.0,0.0,17,0.00,,---,0.00,VWS V14.01,2013-06-23 03:39:00,
2013-06-22 23:45:00,69.4,22.8,0.00,SE,135,0.0,0.0,17,0.00,,---,0.00,VWS V14.01,2013-06-23 03:45:00,
2013-06-22 23:50:00,69.4,22.8,0.00,SE,135,0.0,0.0,17,0.00,,---,0.00,VWS V14.01,2013-06-23 03:50:00,
2013-06-22 23:56:00,69.4,22.8,0.00,SE,141,0.0,0.0,17,0.00,,---,0.00,VWS V14.01,2013-06-23 03:56:00,